Back to catalog

STARLINK-1540

AliveCommunicationsVLEO
NORAD 46051·PAYLOAD·🇺🇸 United States

Launched Aug 7, 2020 from Cape Canaveral Space Force Station

Loading…

Next Passes (next 24 hours)

TLE

FreshSource: CelesTrak SupGP

Epoch: Sep 15, 2026, 01:11 UTC

1 46051C 20055AA  26258.04979167  .00052642  00000+0  16925-2 0  2585
2 46051  53.1571 312.9682 0001084  89.1463 318.7468 15.31681841    11

Track STARLINK-1540 in real time with AllMySat

Download on the App Store